Weather History for KNKT - December, 2012

Change the Weather History Date:

Tuesday, December 11, 2012

  Actual Average Record
Temperature  
Mean Temperature 62 °F -  
Max Temperature 72 °F 57 °F 72 °F (2012)
Min Temperature 53 °F 39 °F 28 °F (2006)
Degree Days  
Heating Degree Days 2    
Growing Degree Days 12 (Base 50)    
Moisture  
Dew Point 59 °F    
Average Humidity 82    
Maximum Humidity 94    
Minimum Humidity 60    
Precipitation  
Precipitation 0.24 in - - ()
Sea Level Pressure  
Sea Level Pressure 29.93 in    
Wind  
Wind Speed 9 mph ()    
Max Wind Speed 15 mph    
Max Gust Speed 20 mph    
Visibility 8.2 miles    
Events Rain    
Averages and records for this station are not official NWS values.
T = Trace of Precipitation, MM = Missing Value Source: Averaged Metar Reports

Daily Weather History Graph

Daily Weather History Graph

Search for Another Location

Airport or City:

Trip Planner

Search our weather history database for the weather conditions in past years. The results will help you decide how hot, cold, wet, or windy it might be!

Date:

Astronomy

Dec. 11, 2012 Rise Set
Actual Time 7:05 AM EST 4:56 PM EST
Civil Twilight 6:37 AM EST 5:24 PM EST
Nautical Twilight 6:05 AM EST 5:56 PM EST
Astronomical Twilight 5:35 AM EST 6:26 PM EST
Moon 5:00 AM EST (12/11) 3:32 PM EST (12/11)
Length of Visible Light 10h 47m
Length of Day
9h 51m
Waning Crescent, 4% of the Moon is Illuminated
Dec 11
Waning Crescent
Dec 13
New
Dec 20
First Quarter
Dec 28
Full
Jan 4
Last Quarter

Hourly Weather History & Observations

Time (EST) Temp. Dew Point Humidity Pressure Visibility Wind Dir Wind Speed Gust Speed Precip Events Conditions
12:35 AM 66.2 °F 62.6 °F 88% 29.79 in 7.0 mi South 10.4 mph - N/A   Mostly Cloudy
12:54 AM 66.9 °F 64.0 °F 90% 29.78 in 7.0 mi SSW 9.2 mph - N/A   Mostly Cloudy
1:54 AM 69.1 °F 64.9 °F 87% 29.79 in 9.0 mi SW 9.2 mph - N/A   Mostly Cloudy
2:54 AM 70.0 °F 66.9 °F 90% 29.79 in 9.0 mi SSW 13.8 mph 18.4 mph N/A   Mostly Cloudy
3:05 AM 69.8 °F 66.2 °F 88% 29.80 in 9.0 mi SW 12.7 mph - 0.00 in Rain Light Rain
3:54 AM 69.1 °F 66.0 °F 90% 29.79 in 7.0 mi SSW 11.5 mph - 0.01 in Rain Light Rain
4:00 AM 69.8 °F 66.2 °F 88% 29.80 in 6.0 mi SSW 8.1 mph - 0.00 in Rain Light Rain
5:54 AM 69.1 °F 66.0 °F 90% 29.81 in 8.0 mi SW 11.5 mph - N/A   Mostly Cloudy
7:08 AM 66.2 °F 64.4 °F 94% 29.85 in 7.0 mi SW 8.1 mph - N/A   Mostly Cloudy
7:36 AM 66.2 °F 64.4 °F 94% 29.86 in 6.0 mi SW 8.1 mph - N/A   Mostly Cloudy
7:54 AM 66.9 °F 64.0 °F 90% 29.86 in 6.0 mi WSW 6.9 mph - N/A   Mostly Cloudy
8:23 AM 68.0 °F 64.4 °F 88% 29.88 in 7.0 mi WSW 8.1 mph - N/A   Scattered Clouds
8:54 AM 68.0 °F 64.9 °F 90% 29.89 in 7.0 mi WSW 6.9 mph - N/A   Mostly Cloudy
9:40 AM 69.8 °F 64.4 °F 83% 29.91 in 10.0 mi West 12.7 mph - N/A   Mostly Cloudy
9:54 AM 70.0 °F 63.0 °F 78% 29.92 in 10.0 mi West 11.5 mph - N/A   Mostly Cloudy
10:02 AM 69.8 °F 62.6 °F 78% 29.93 in 10.0 mi West 15.0 mph 19.6 mph N/A   Mostly Cloudy
10:54 AM 70.0 °F 61.0 °F 73% 29.92 in 10.0 mi West 12.7 mph 18.4 mph N/A   Mostly Cloudy
11:54 AM 69.1 °F 60.1 °F 73% 29.92 in 10.0 mi West 10.4 mph - N/A   Mostly Cloudy
12:54 PM 72.0 °F 59.0 °F 64% 29.92 in 10.0 mi WNW 10.4 mph - N/A   Mostly Cloudy
1:07 PM 71.6 °F 57.2 °F 60% 29.93 in 10.0 mi West 10.4 mph - N/A   Mostly Cloudy
1:34 PM 71.6 °F 57.2 °F 60% 29.93 in 10.0 mi WNW 11.5 mph - N/A   Mostly Cloudy
1:54 PM 71.1 °F 57.9 °F 63% 29.92 in 10.0 mi NW 10.4 mph - N/A   Mostly Cloudy
2:19 PM 71.6 °F 57.2 °F 60% 29.93 in 10.0 mi WNW 8.1 mph - N/A   Mostly Cloudy
2:54 PM 70.0 °F 57.0 °F 63% 29.94 in 10.0 mi WNW 5.8 mph - N/A   Mostly Cloudy
3:54 PM 68.0 °F 57.9 °F 70% 29.96 in 10.0 mi Calm Calm - N/A   Overcast
4:54 PM 66.0 °F 59.0 °F 78% 29.98 in 10.0 mi Calm Calm - N/A   Overcast
5:54 PM 57.9 °F 55.0 °F 90% 30.02 in 4.0 mi ENE 11.5 mph - 0.05 in Rain Rain
6:21 PM 57.2 °F 53.6 °F 88% 30.06 in 7.0 mi ENE 8.1 mph - 0.01 in Rain Light Rain
6:29 PM 57.2 °F 53.6 °F 88% 30.06 in 6.0 mi ENE 8.1 mph - 0.02 in Rain Rain
6:54 PM 55.0 °F 52.0 °F 89% 30.06 in 4.0 mi NE 9.2 mph - 0.06 in Rain Rain
7:54 PM 54.0 °F 52.0 °F 93% 30.05 in 5.0 mi East 10.4 mph - 0.11 in Rain Rain
8:08 PM 53.6 °F 51.8 °F 94% 30.07 in 8.0 mi ENE 6.9 mph - 0.00 in Rain Light Rain
8:54 PM 54.0 °F 51.1 °F 90% 30.09 in 10.0 mi NE 10.4 mph - 0.01 in   Overcast
9:54 PM 53.1 °F 50.0 °F 89% 30.09 in 10.0 mi NE 12.7 mph - N/A   Overcast
10:54 PM 53.1 °F 50.0 °F 89% 30.11 in 8.0 mi NNE 9.2 mph - N/A   Overcast
11:54 PM 53.1 °F 50.0 °F 89% 30.12 in 8.0 mi NE 10.4 mph - N/A   Overcast